{"data":{"norad_id":67220,"intl_designator":"2025-305B","name":"DISKSAT B","alt_names":[],"object_type":"PAYLOAD","status":"ACTIVE","operator":null,"country":"US","launch_date":"2025-12-18","launch_site_code":"WLPIS","launch_vehicle":null,"mission":null,"orbit_class":"UNKNOWN","rcs_meters":null,"size_class":null,"mass_kg":null,"dimensions":null,"purposes":[],"wikipedia_slug":null,"has_3d_model":false,"image_url":null,"decayed_at":null,"tle_current":{"epoch":"2026-09-19T19:52:50.948544Z","epoch_age_seconds":164223,"freshness":"FRESH","line1":"1 67220U 25305B   26262.82836746  .00004010  00000+0  26195-3 0  9994","line2":"2 67220  45.0024 301.5004 0005519 324.2474  35.8032 15.09405552 41612","mean_motion":15.09405552,"eccentricity":0.0005519,"inclination_deg":45.0024,"raan_deg":301.5004,"arg_perigee_deg":324.2474,"mean_anomaly_deg":35.8032,"bstar":0.00026195,"rev_number":4161,"period_min":95.401795633517,"perigee_km":534.19823809621,"apogee_km":541.83228696359,"semimajor_km":6916.1522625299,"source":"CELESTRAK","updated_at":"2026-09-21T09:00:16.504905Z"}}}